Early, TX

9:19 PM CST on February 19, 2017 (GMT -0600)
Brownwood Regional

Weather History for KBWD - September, 2013

Change the Weather History Date:

Saturday, September 28, 2013

  Actual Average (KABI) Record (KABI)
Temperature  
Mean Temperature 72 °F -  
Max Temperature 82 °F 82 °F 102 °F (1953)
Min Temperature 62 °F 58 °F 40 °F (1996)
Cooling Degree Days 7    
Growing Degree Days 22 (Base 50)    
Moisture  
Dew Point 67 °F    
Average Humidity 83    
Maximum Humidity 94    
Minimum Humidity 70    
Precipitation  
Precipitation 0.07 in - - ()
Sea Level Pressure  
Sea Level Pressure 29.98 in    
Wind  
Wind Speed 12 mph (ENE)    
Max Wind Speed 18 mph    
Max Gust Speed 26 mph    
Visibility 10 miles    
Events Rain    
Averages and records for this station are not official NWS values.
T = Trace of Precipitation, MM = Missing Value Source: NWS Daily Summary

Daily Weather History Graph

Daily Weather History Graph

Search for Another Location

Airport or City:

Trip Planner

Search our weather history database for the weather conditions in past years. The results will help you decide how hot, cold, wet, or windy it might be!

Date:

Astronomy

Sep. 28, 2013 Rise Set
Actual Time 7:27 AM CDT 7:24 PM CDT
Civil Twilight 7:03 AM CDT 7:48 PM CDT
Nautical Twilight 6:35 AM CDT 8:16 PM CDT
Astronomical Twilight 6:06 AM CDT 8:45 PM CDT
Moon 1:35 AM CDT (9/28) 3:27 PM CDT (9/28)
Length of Visible Light 12h 44m
Length of Day
11h 56m
Waning Crescent, 36% of the Moon is Illuminated
Sep 28
Waning Crescent
Oct 4
New
Oct 11
First Quarter
Oct 18
Full
Oct 26
Last Quarter

Hourly Weather History & Observations

Time (CDT) Temp. Heat Index Dew Point Humidity Pressure Visibility Wind Dir Wind Speed Gust Speed Precip Events Conditions
12:15 AM 77.0 °F - 71.6 °F 83% 29.88 in 10.0 mi SSE 15.0 mph - N/A   Mostly Cloudy
12:35 AM 77.0 °F - 73.4 °F 89% 29.89 in 10.0 mi SSE 15.0 mph 19.6 mph N/A   Overcast
12:55 AM 77.0 °F - 71.6 °F 83% 29.88 in 10.0 mi SSE 12.7 mph 19.6 mph N/A   Overcast
1:15 AM 77.0 °F - 71.6 °F 83% 29.88 in 10.0 mi SSE 12.7 mph 20.7 mph N/A   Mostly Cloudy
1:35 AM 77.0 °F - 71.6 °F 83% 29.88 in 10.0 mi SSE 11.5 mph 20.7 mph N/A   Scattered Clouds
1:55 AM 77.0 °F - 71.6 °F 83% 29.88 in 10.0 mi SSE 12.7 mph 20.7 mph N/A   Mostly Cloudy
2:15 AM 77.0 °F - 71.6 °F 83% 29.88 in 10.0 mi SSE 15.0 mph 18.4 mph N/A   Mostly Cloudy
2:35 AM 77.0 °F - 71.6 °F 83% 29.88 in 10.0 mi SSE 15.0 mph 19.6 mph N/A   Mostly Cloudy
2:55 AM 75.2 °F - 71.6 °F 89% 29.88 in 10.0 mi SSE 16.1 mph 20.7 mph N/A   Mostly Cloudy
3:15 AM 75.2 °F - 71.6 °F 89% 29.88 in 10.0 mi SSE 10.4 mph 21.9 mph N/A   Mostly Cloudy
3:35 AM 75.2 °F - 71.6 °F 89% 29.88 in 10.0 mi SSE 15.0 mph 20.7 mph N/A   Overcast
3:55 AM 75.2 °F - 71.6 °F 89% 29.88 in 10.0 mi SSE 11.5 mph 18.4 mph N/A   Overcast
4:15 AM 77.0 °F - 71.6 °F 83% 29.88 in 10.0 mi South 10.4 mph 16.1 mph N/A   Overcast
4:35 AM 75.2 °F - 71.6 °F 89% 29.88 in 10.0 mi South 9.2 mph 16.1 mph N/A   Mostly Cloudy
4:55 AM 75.2 °F - 71.6 °F 89% 29.88 in 10.0 mi SSE 11.5 mph - N/A   Mostly Cloudy
5:15 AM 75.2 °F - 71.6 °F 89% 29.89 in 10.0 mi SSE 9.2 mph - N/A   Scattered Clouds
5:35 AM 75.2 °F - 71.6 °F 89% 29.89 in 10.0 mi SSE 9.2 mph 17.3 mph N/A   Mostly Cloudy
5:55 AM 75.2 °F - 71.6 °F 89% 29.90 in 10.0 mi SSE 8.1 mph - N/A   Mostly Cloudy
6:15 AM 75.2 °F - 71.6 °F 89% 29.90 in 10.0 mi SSE 8.1 mph - N/A   Mostly Cloudy
6:35 AM 75.2 °F - 71.6 °F 89% 29.90 in 10.0 mi SSE 8.1 mph - N/A   Partly Cloudy
6:55 AM 75.2 °F - 71.6 °F 89% 29.90 in 10.0 mi SSE 9.2 mph - N/A   Partly Cloudy
7:15 AM 75.2 °F - 71.6 °F 89% 29.91 in 10.0 mi South 6.9 mph - N/A   Mostly Cloudy
7:35 AM 75.2 °F - 71.6 °F 89% 29.91 in 8.0 mi SSE 8.1 mph - N/A   Partly Cloudy
7:55 AM 75.2 °F - 71.6 °F 89% 29.92 in 9.0 mi SSE 10.4 mph - N/A   Clear
8:15 AM 75.2 °F - 71.6 °F 89% 29.93 in 9.0 mi SSE 10.4 mph - N/A   Clear
8:35 AM 75.2 °F - 71.6 °F 89% 29.94 in 9.0 mi South 8.1 mph - N/A   Clear
8:55 AM 77.0 °F - 71.6 °F 83% 29.96 in 9.0 mi South 6.9 mph - N/A   Clear
9:15 AM 77.0 °F - 71.6 °F 83% 29.97 in 9.0 mi South 4.6 mph - N/A   Clear
9:35 AM 77.0 °F - 71.6 °F 83% 29.98 in 9.0 mi SSE 6.9 mph - N/A   Partly Cloudy
9:55 AM 77.0 °F - 71.6 °F 83% 29.97 in 10.0 mi SSE 6.9 mph - N/A   Clear
10:15 AM 80.6 °F 84.6 °F 71.6 °F 74% 29.97 in 10.0 mi SSE 10.4 mph - N/A   Unknown
10:35 AM 80.6 °F 84.6 °F 71.6 °F 74% 29.98 in 9.0 mi South 10.4 mph - N/A   Unknown
10:55 AM 80.6 °F 84.6 °F 71.6 °F 74% 29.98 in 10.0 mi South 12.7 mph - N/A   Unknown
11:15 AM 82.4 °F 87.2 °F 71.6 °F 70% 29.98 in 10.0 mi South 12.7 mph - N/A   Unknown
11:35 AM 82.4 °F 87.2 °F 71.6 °F 70% 29.98 in 10.0 mi SSW 11.5 mph - N/A   Unknown
11:55 AM 73.4 °F - 66.2 °F 78% 30.00 in 10.0 mi NNW 16.1 mph 26.5 mph N/A   Mostly Cloudy
12:15 PM 71.6 °F - 64.4 °F 78% 30.01 in 10.0 mi North 13.8 mph 20.7 mph N/A   Unknown
12:35 PM 71.6 °F - 64.4 °F 78% 30.01 in 10.0 mi North 13.8 mph - N/A   Unknown
12:55 PM 71.6 °F - 66.2 °F 83% 30.01 in 7.0 mi North 13.8 mph - N/A Rain Light Rain
1:15 PM 73.4 °F - 66.2 °F 78% 30.01 in 10.0 mi North 13.8 mph 19.6 mph N/A   Unknown
1:35 PM 75.2 °F - 66.2 °F 73% 30.01 in 10.0 mi NNW 18.4 mph 21.9 mph N/A   Unknown
1:55 PM 73.4 °F - 66.2 °F 78% 30.01 in 10.0 mi NNW 15.0 mph 20.7 mph N/A   Unknown
2:15 PM 73.4 °F - 66.2 °F 78% 30.01 in 10.0 mi North 17.3 mph - N/A   Unknown
2:35 PM 71.6 °F - 64.4 °F 78% 30.02 in 10.0 mi NNW 16.1 mph 26.5 mph N/A   Unknown
2:55 PM 69.8 °F - 66.2 °F 88% 29.99 in 1.5 mi NNE 9.2 mph - 0.07 in Rain Rain
3:15 PM 69.8 °F - 68.0 °F 94% 29.96 in 10.0 mi NE 10.4 mph - N/A   Unknown
3:35 PM 71.6 °F - 68.0 °F 88% 29.97 in 10.0 mi NNE 8.1 mph - N/A   Unknown
3:55 PM 73.4 °F - 68.0 °F 83% 29.97 in 10.0 mi North 5.8 mph - N/A   Unknown
4:15 PM 71.6 °F - 66.2 °F 83% 29.97 in 10.0 mi NNW 13.8 mph - N/A   Unknown
4:35 PM 69.8 °F - 66.2 °F 88% 29.99 in 10.0 mi North 13.8 mph - N/A   Unknown
4:55 PM 68.0 °F - 64.4 °F 88% 30.00 in 10.0 mi NNW 13.8 mph 20.7 mph N/A   Unknown
5:15 PM 66.2 °F - 64.4 °F 94% 30.00 in 10.0 mi NNW 18.4 mph - N/A   Unknown
5:35 PM 66.2 °F - 62.6 °F 88% 30.01 in 10.0 mi NNW 15.0 mph - N/A   Unknown
5:55 PM 64.4 °F - 60.8 °F 88% 30.02 in 10.0 mi NNW 13.8 mph 19.6 mph N/A   Unknown
6:15 PM 64.4 °F - 59.0 °F 83% 30.02 in 10.0 mi North 11.5 mph 20.7 mph N/A   Unknown
6:35 PM 64.4 °F - 59.0 °F 83% 30.03 in 10.0 mi NNW 11.5 mph - N/A   Unknown
6:55 PM 64.4 °F - 59.0 °F 83% 30.04 in 10.0 mi North 13.8 mph - N/A   Unknown
7:15 PM 64.4 °F - 59.0 °F 83% 30.05 in 10.0 mi North 9.2 mph - N/A   Unknown
7:35 PM 64.4 °F - 59.0 °F 83% 30.06 in 10.0 mi North 9.2 mph - N/A   Unknown
7:55 PM 64.4 °F - 59.0 °F 83% 30.07 in 10.0 mi North 9.2 mph - N/A   Overcast
8:15 PM 64.4 °F - 59.0 °F 83% 30.07 in 10.0 mi North 9.2 mph 18.4 mph N/A   Overcast
8:35 PM 62.6 °F - 57.2 °F 82% 30.08 in 10.0 mi North 10.4 mph 17.3 mph N/A   Overcast
8:55 PM 62.6 °F - 57.2 °F 82% 30.09 in 10.0 mi North 6.9 mph - N/A   Overcast
9:15 PM 62.6 °F - 57.2 °F 82% 30.10 in 10.0 mi North 8.1 mph - N/A   Overcast
9:35 PM 62.6 °F - 57.2 °F 82% 30.10 in 10.0 mi North 8.1 mph - N/A   Mostly Cloudy
9:55 PM 64.4 °F - 57.2 °F 77% 30.11 in 10.0 mi North 5.8 mph - N/A   Overcast
10:15 PM 64.4 °F - 57.2 °F 77% 30.11 in 10.0 mi North 10.4 mph - N/A   Overcast
10:35 PM 64.4 °F - 57.2 °F 77% 30.11 in 10.0 mi North 6.9 mph - N/A   Overcast
10:55 PM 64.4 °F - 57.2 °F 77% 30.11 in 10.0 mi North 9.2 mph - N/A   Overcast
11:15 PM 64.4 °F - 57.2 °F 77% 30.11 in 10.0 mi North 6.9 mph - N/A   Overcast
11:35 PM 64.4 °F - 57.2 °F 77% 30.10 in 10.0 mi North 9.2 mph - N/A   Overcast
11:55 PM 64.4 °F - 57.2 °F 77% 30.11 in 10.0 mi North 5.8 mph - N/A   Overcast